Location: Newark
(13.8117°N, 3.6025°W)
Time: 01:42:30
(UTC+00:00)

Hubble Space Telescope - Pass Details

Date: 25 August 2019
Orbit: 536 x 540 km, 28.5° (Epoch: 23 October)

Event Time Altitude Azimuth Distance (km) Brightness Sun altitude
Rises 19:12:34 0° 306° (NW) 2,665 5.8 -10.8°
Reaches altitude 10° 19:14:57 10° 314° (NW) 1,774 4.4 -11.3°
Maximum altitude 19:18:45 36° 22° (NNE) 844 1.7 -12.2°
Enters shadow 19:21:20 18° 81° (E) 1,349 2.2 -12.8°
